Time,TemperatureF,DewpointF,PressureIn,WindDirection,WindDirectionDegrees,WindSpeedMPH,WindSpeedGustMPH,Humidity,HourlyPrecipIn,Conditions,Clouds,dailyrainin,SolarRadiationWatts/m^2,SoftwareType,DateUTC
2013-06-24 00:02:00,69.0,68.0,-100.00,SW,220,10.0,19.0,96,0.00,,,0.00,0.000000,,2013-06-24 04:02:00,
2013-06-24 00:12:00,69.0,68.0,-100.00,SW,216,10.0,21.0,96,0.00,,,0.00,0.000000,,2013-06-24 04:12:00,
2013-06-24 00:33:00,69.0,68.0,-100.00,SW,216,10.0,21.0,96,0.00,,,0.00,0.000000,,2013-06-24 04:33:00,
2013-06-24 00:43:00,69.0,68.0,-100.00,SW,216,10.0,21.0,96,0.00,,,0.00,0.000000,,2013-06-24 04:43:00,
2013-06-24 00:53:00,69.0,68.0,-100.00,SW,216,10.0,21.0,96,0.00,,,0.00,0.000000,,2013-06-24 04:53:00,
2013-06-24 01:02:00,69.0,68.0,-100.00,SW,216,10.0,21.0,96,0.00,,,0.00,0.000000,,2013-06-24 05:02:00,
2013-06-24 01:12:00,69.0,68.0,-100.00,SW,224,10.0,19.0,96,0.00,,,0.00,0.000000,,2013-06-24 05:12:00,
2013-06-24 01:48:00,69.0,68.0,-100.00,SW,224,10.0,19.0,96,0.00,,,0.00,0.000000,,2013-06-24 05:48:00,
2013-06-24 02:10:00,69.0,68.0,-100.00,SW,224,10.0,19.0,96,0.00,,,0.00,0.000000,,2013-06-24 06:10:00,
2013-06-24 02:12:00,68.0,67.0,-100.00,SW,217,8.0,20.0,96,0.00,,,0.00,0.000000,,2013-06-24 06:12:00,
2013-06-24 02:48:00,68.0,67.0,-100.00,SW,217,8.0,20.0,96,0.00,,,0.00,0.000000,,2013-06-24 06:48:00,
2013-06-24 02:57:00,68.0,67.0,-100.00,SW,217,8.0,20.0,96,0.00,,,0.00,0.000000,,2013-06-24 06:57:00,
2013-06-24 03:06:00,68.0,67.0,-100.00,SW,217,8.0,20.0,96,0.00,,,0.00,0.000000,,2013-06-24 07:06:00,
2013-06-24 03:12:00,68.0,67.0,-100.00,SW,216,8.0,20.0,97,0.00,,,0.00,0.000000,,2013-06-24 07:12:00,
2013-06-24 03:49:00,68.0,67.0,-100.00,SW,216,8.0,20.0,97,0.00,,,0.00,0.000000,,2013-06-24 07:49:00,
2013-06-24 03:58:00,68.0,67.0,-100.00,SW,216,8.0,20.0,97,0.00,,,0.00,0.000000,,2013-06-24 07:58:00,
2013-06-24 04:48:00,68.0,67.0,-100.00,SW,220,10.0,19.0,98,0.00,,,0.00,0.000000,,2013-06-24 08:48:00,
2013-06-24 04:56:00,68.0,67.0,-100.00,SW,220,10.0,19.0,98,0.00,,,0.00,0.000000,,2013-06-24 08:56:00,
2013-06-24 05:08:00,68.0,67.0,-100.00,SW,220,10.0,19.0,98,0.00,,,0.00,0.000000,,2013-06-24 09:08:00,
2013-06-24 05:12:00,68.0,67.0,-100.00,SW,218,8.0,19.0,98,0.00,,,0.00,0.000000,,2013-06-24 09:12:00,
2013-06-24 05:49:00,68.0,67.0,-100.00,SW,218,8.0,19.0,98,0.00,,,0.00,0.000000,,2013-06-24 09:49:00,
2013-06-24 06:00:00,68.0,67.0,-100.00,SW,218,8.0,19.0,98,0.00,,,0.00,0.000000,,2013-06-24 10:00:00,
2013-06-24 06:51:00,69.0,68.0,-100.00,SW,214,6.0,14.0,98,0.00,,,0.00,28.000000,,2013-06-24 10:51:00,
2013-06-24 06:59:00,69.0,68.0,-100.00,SW,214,6.0,14.0,98,0.00,,,0.00,28.000000,,2013-06-24 10:59:00,
2013-06-24 07:12:00,69.0,68.0,-100.00,SW,220,9.0,16.0,97,0.00,,,0.00,96.000000,,2013-06-24 11:12:00,
2013-06-24 07:51:00,69.0,68.0,-100.00,SW,220,9.0,16.0,97,0.00,,,0.00,96.000000,,2013-06-24 11:51:00,
2013-06-24 07:58:00,69.0,68.0,-100.00,SW,220,9.0,16.0,97,0.00,,,0.00,96.000000,,2013-06-24 11:58:00,
2013-06-24 08:07:00,69.0,68.0,-100.00,SW,220,9.0,16.0,97,0.00,,,0.00,96.000000,,2013-06-24 12:07:00,
2013-06-24 08:12:00,72.0,69.0,-100.00,SW,223,9.0,18.0,91,0.00,,,0.00,367.000000,,2013-06-24 12:12:00,
2013-06-24 08:49:00,72.0,69.0,-100.00,SW,223,9.0,18.0,91,0.00,,,0.00,367.000000,,2013-06-24 12:49:00,
2013-06-24 08:55:00,72.0,69.0,-100.00,SW,223,9.0,18.0,91,0.00,,,0.00,367.000000,,2013-06-24 12:55:00,
2013-06-24 09:06:00,72.0,69.0,-100.00,SW,223,9.0,18.0,91,0.00,,,0.00,367.000000,,2013-06-24 13:06:00,
2013-06-24 09:12:00,75.0,70.0,-100.00,SW,230,9.0,16.0,84,0.00,,,0.00,688.000000,,2013-06-24 13:12:00,
2013-06-24 09:58:00,75.0,70.0,-100.00,SW,230,9.0,16.0,84,0.00,,,0.00,688.000000,,2013-06-24 13:58:00,
2013-06-24 10:04:00,75.0,70.0,-100.00,SW,230,9.0,16.0,84,0.00,,,0.00,688.000000,,2013-06-24 14:04:00,
2013-06-24 10:47:00,78.0,70.0,-100.00,SW,226,6.0,16.0,77,0.00,,,0.00,894.000000,,2013-06-24 14:47:00,
2013-06-24 10:59:00,78.0,70.0,-100.00,SW,226,6.0,16.0,77,0.00,,,0.00,894.000000,,2013-06-24 14:59:00,
2013-06-24 11:06:00,78.0,70.0,-100.00,SW,226,6.0,16.0,77,0.00,,,0.00,894.000000,,2013-06-24 15:06:00,
2013-06-24 11:12:00,80.0,71.0,-100.00,SW,225,9.0,14.0,73,0.00,,,0.00,1048.000000,,2013-06-24 15:12:00,
2013-06-24 11:49:00,80.0,71.0,-100.00,SW,225,9.0,14.0,73,0.00,,,0.00,1048.000000,,2013-06-24 15:49:00,
2013-06-24 11:57:00,80.0,71.0,-100.00,SW,225,9.0,14.0,73,0.00,,,0.00,1048.000000,,2013-06-24 15:57:00,
2013-06-24 12:12:00,84.0,72.0,-100.00,SW,221,7.0,13.0,68,0.00,,,0.00,1128.000000,,2013-06-24 16:12:00,
2013-06-24 12:45:00,84.0,72.0,-100.00,SW,221,7.0,13.0,68,0.00,,,0.00,1128.000000,,2013-06-24 16:45:00,
2013-06-24 12:56:00,84.0,72.0,-100.00,SW,221,7.0,13.0,68,0.00,,,0.00,1128.000000,,2013-06-24 16:56:00,
2013-06-24 13:12:00,87.0,73.0,-100.00,SW,225,7.0,13.0,64,0.00,,,0.00,1153.000000,,2013-06-24 17:12:00,
2013-06-24 13:48:00,87.0,73.0,-100.00,SW,225,7.0,13.0,64,0.00,,,0.00,1153.000000,,2013-06-24 17:48:00,
2013-06-24 13:57:00,87.0,73.0,-100.00,SW,225,7.0,13.0,64,0.00,,,0.00,1153.000000,,2013-06-24 17:57:00,
2013-06-24 14:03:00,87.0,73.0,-100.00,SW,225,7.0,13.0,64,0.00,,,0.00,1153.000000,,2013-06-24 18:03:00,
2013-06-24 14:50:00,89.0,74.0,-100.00,SW,226,7.0,15.0,61,0.00,,,0.00,1111.000000,,2013-06-24 18:50:00,
2013-06-24 15:07:00,89.0,74.0,-100.00,SW,226,7.0,15.0,61,0.00,,,0.00,1111.000000,,2013-06-24 19:07:00,
2013-06-24 15:12:00,88.0,72.0,-100.00,SW,219,9.0,17.0,60,0.00,,,0.00,993.000000,,2013-06-24 19:12:00,
2013-06-24 15:46:00,88.0,72.0,-100.00,SW,219,9.0,17.0,60,0.00,,,0.00,993.000000,,2013-06-24 19:46:00,
2013-06-24 15:57:00,88.0,72.0,-100.00,SW,219,9.0,17.0,60,0.00,,,0.00,993.000000,,2013-06-24 19:57:00,
2013-06-24 16:06:00,88.0,72.0,-100.00,SW,219,9.0,17.0,60,0.00,,,0.00,993.000000,,2013-06-24 20:06:00,
2013-06-24 16:47:00,86.0,71.0,-100.00,SW,220,9.0,19.0,62,0.00,,,0.00,821.000000,,2013-06-24 20:47:00,
2013-06-24 16:56:00,86.0,71.0,-100.00,SW,220,9.0,19.0,62,0.00,,,0.00,821.000000,,2013-06-24 20:56:00,
2013-06-24 17:12:00,85.0,72.0,-100.00,SW,221,10.0,19.0,65,0.00,,,0.00,608.000000,,2013-06-24 21:12:00,
2013-06-24 17:48:00,85.0,72.0,-100.00,SW,221,10.0,19.0,65,0.00,,,0.00,608.000000,,2013-06-24 21:48:00,
2013-06-24 17:55:00,85.0,72.0,-100.00,SW,221,10.0,19.0,65,0.00,,,0.00,608.000000,,2013-06-24 21:55:00,
2013-06-24 18:07:00,85.0,72.0,-100.00,SW,221,10.0,19.0,65,0.00,,,0.00,608.000000,,2013-06-24 22:07:00,
2013-06-24 18:12:00,83.0,71.0,-100.00,SW,219,7.0,16.0,67,0.00,,,0.00,363.000000,,2013-06-24 22:12:00,
2013-06-24 18:51:00,83.0,71.0,-100.00,SW,219,7.0,16.0,67,0.00,,,0.00,363.000000,,2013-06-24 22:51:00,
2013-06-24 18:56:00,83.0,71.0,-100.00,SW,219,7.0,16.0,67,0.00,,,0.00,363.000000,,2013-06-24 22:56:00,
2013-06-24 19:06:00,83.0,71.0,-100.00,SW,219,7.0,16.0,67,0.00,,,0.00,363.000000,,2013-06-24 23:06:00,
2013-06-24 19:12:00,80.0,69.0,-100.00,SW,223,9.0,18.0,69,0.00,,,0.00,85.000000,,2013-06-24 23:12:00,
2013-06-24 19:46:00,80.0,69.0,-100.00,SW,223,9.0,18.0,69,0.00,,,0.00,85.000000,,2013-06-24 23:46:00,
2013-06-24 19:56:00,80.0,69.0,-100.00,SW,223,9.0,18.0,69,0.00,,,0.00,85.000000,,2013-06-24 23:56:00,
2013-06-24 20:06:00,80.0,69.0,-100.00,SW,223,9.0,18.0,69,0.00,,,0.00,85.000000,,2013-06-25 00:06:00,
2013-06-24 21:12:00,75.0,66.0,-100.00,NW,322,5.0,16.0,73,-99.99,,,0.00,1.000000,,2013-06-25 01:12:00,
2013-06-24 21:46:00,75.0,66.0,-100.00,NW,322,5.0,16.0,73,-99.99,,,0.00,1.000000,,2013-06-25 01:46:00,
2013-06-24 21:58:00,75.0,66.0,-100.00,NW,322,5.0,16.0,73,-99.99,,,0.00,1.000000,,2013-06-25 01:58:00,
2013-06-24 22:06:00,75.0,66.0,-100.00,NW,322,5.0,16.0,73,-99.99,,,0.00,1.000000,,2013-06-25 02:06:00,
2013-06-24 22:12:00,70.0,62.0,-100.00,West,264,7.0,13.0,75,0.00,,,0.00,0.000000,,2013-06-25 02:12:00,
2013-06-24 22:49:00,70.0,62.0,-100.00,West,264,7.0,13.0,75,0.00,,,0.00,0.000000,,2013-06-25 02:49:00,
2013-06-24 22:58:00,70.0,62.0,-100.00,West,264,7.0,13.0,75,0.00,,,0.00,0.000000,,2013-06-25 02:58:00,
2013-06-24 23:08:00,70.0,62.0,-100.00,West,264,7.0,13.0,75,0.00,,,0.00,0.000000,,2013-06-25 03:08:00,
2013-06-24 23:58:00,69.0,65.0,-100.00,WNW,301,4.0,14.0,88,0.00,,,0.00,0.000000,,2013-06-25 03:58:00,